Flag for Burundi Weather past 2 weeks in Gitega, Burundi

Now
66 °F

Passing clouds.


Feels Like: 66 °F
Forecast: 53 / 75 °F
Wind: No wind

Location: Kigali Airport

Current Time: Jul 7, 2015 at 12:49:23 AM

Latest Report: Jul 7, 2015 at 12:00 AM


Visibility: N/A

Pressure: 30.21 "Hg (24.82 "Hg at 1679m altitude)

Humidity: 60%

Dew point: 52 °F

Location of GitegaLocation

Historic Weather in Gitega — Graph

°F

Gitega temperature yesterday

Maximum temperature yesterday: 82 °F (at 3:30 PM)
Minimum temperature yesterday: 59 °F (at 4:00 AM)
Average temperature yesterday: 71 °F

Past Weeks' High & Low Weather Summary

 TemperatureHumidityPressure
High84 °F (Jul 5, 4:00 PM)100% (Jun 22, 1:30 AM)30.30 "Hg (Jun 22, 1:30 AM)
Low57 °F (Jul 5, 6:30 AM)35% (Jul 6, 4:00 PM)30.09 "Hg (Jun 30, 3:00 PM)
Average71 °F71%30.20 "Hg
* Reported Jun 21 11:00 PM — Jul 6 11:30 PM, Gitega, Weather by CustomWeather, © 2015

Note: Actual official high and low records may vary slightly from our data, if they occured in-between our weather recording intervals... More about our weather records

Advertising

Gitega weather history for previous 24 hours

 ConditionsComfort  
Time TempWeatherWind HumidityBarometerVisibility
11:30 PM
Mon, Jul 6
66 °FPassing clouds.No wind60%30.21 "HgN/A
11:00 PM66 °FPassing clouds.No wind60%30.21 "HgN/A
10:30 PM66 °FPassing clouds.3 mph64%30.21 "HgN/A
10:00 PM66 °FPassing clouds.No wind56%30.21 "HgN/A
9:30 PM68 °FPassing clouds.3 mph56%30.21 "HgN/A
9:00 PM68 °FPassing clouds.3 mph53%30.21 "HgN/A
8:30 PM70 °FPassing clouds.3 mph53%30.21 "HgN/A
8:00 PM72 °FPassing clouds.3 mph50%30.18 "HgN/A
7:30 PM73 °FPassing clouds.5 mph47%30.18 "HgN/A
7:00 PM77 °FPassing clouds.6 mph42%30.18 "HgN/A
6:30 PM77 °FPassing clouds.6 mph42%30.15 "HgN/A
6:00 PM79 °FPassing clouds.5 mph39%30.15 "HgN/A
5:30 PM81 °FScattered clouds.7 mph37%30.15 "HgN/A
5:00 PM82 °FScattered clouds.8 mph35%30.15 "HgN/A
4:30 PM82 °FPartly sunny.7 mph37%30.15 "HgN/A
4:00 PM82 °FPartly sunny.8 mph35%30.15 "HgN/A
3:30 PM82 °FPartly sunny.5 mph37%30.15 "HgN/A
3:00 PM81 °FPartly sunny.9 mph42%30.15 "HgN/A
2:30 PM81 °FPartly sunny.10 mph42%30.15 "HgN/A
2:00 PM81 °FPartly sunny.8 mph42%30.18 "HgN/A
1:30 PM81 °FPartly sunny.7 mph42%30.18 "HgN/A
1:00 PM79 °FScattered clouds.10 mph48%30.21 "HgN/A
12:30 PM79 °FScattered clouds.9 mph48%30.21 "HgN/A
12:00 PM77 °FScattered clouds.7 mph54%30.24 "HgN/A
11:00 AM77 °FPassing clouds.3 mph51%30.24 "HgN/A
10:30 AM75 °FPassing clouds.5 mph57%30.27 "HgN/A
10:00 AM73 °FPassing clouds.6 mph53%30.27 "HgN/A
9:30 AM73 °FPassing clouds.5 mph53%30.27 "HgN/A
9:00 AM72 °FPassing clouds.3 mph57%30.27 "HgN/A
8:30 AM72 °FPassing clouds.3 mph61%30.27 "HgN/A
8:00 AM66 °FPassing clouds.5 mph73%30.27 "HgN/A
7:30 AM64 °FPassing clouds.5 mph78%30.27 "HgN/A
7:00 AM61 °FPassing clouds.3 mph83%30.27 "HgN/A
6:30 AM59 °FPassing clouds.No wind88%30.24 "HgN/A
6:00 AM59 °FPassing clouds.No wind88%30.24 "HgN/A
5:30 AM59 °FPassing clouds.No wind88%30.24 "HgN/A
5:00 AM59 °FPassing clouds.No wind88%30.24 "HgN/A
4:00 AM59 °FPassing clouds.No wind94%30.21 "HgN/A
3:30 AM61 °FPassing clouds.No wind88%30.21 "HgN/A
3:00 AM61 °FPassing clouds.6 mph88%30.18 "HgN/A
2:30 AM63 °FPassing clouds.3 mph77%30.18 "HgN/A
2:00 AM63 °FPassing clouds.3 mph77%30.18 "HgN/A
1:30 AM63 °FPassing clouds.5 mph77%30.18 "HgN/A
1:00 AM64 °FPassing clouds.3 mph73%30.21 "HgN/A
12:30 AM66 °FPassing clouds.3 mph68%30.21 "HgN/A
12:00 AM66 °FPassing clouds.3 mph68%30.21 "HgN/A
Weather by CustomWeather, © 2015

See weather overviewHow to use our weather pages